This demonstration page uses our WeatherBlox Daily Observations layout. Learn more.

Left ArrowRight Arrow

39.12711, -84.51439

Hourly Observations for July 8, 2020

Temp ( °F °C ) Dew Point ( °F °C ) Humidity (%) Winds ( mph kmh ) Pressure ( in mb ) Visibility ( mi km ) Precip ( " mm )
12:53 am 00:53 Clear 73 22.8 70 21.1 90 90 Calm 29.97 1015 10 16 0.00 0.00
1:53 am 01:53 Clear 73 22.8 70 21.1 90 90 Calm 29.96 1015 10 16 0.00 0.00
2:53 am 02:53 Clear 72 22.2 70 21.1 94 94 SE 3 6 29.95 1014 10 16 0.00 0.00
3:53 am 03:53 Clear 71 21.7 69 20.6 94 94 Calm 29.94 1014 9 14 0.00 0.00
4:53 am 04:53 Clear 70 21.1 68 20 93 93 S 3 6 29.94 1014 8 13 0.00 0.00
5:53 am 05:53 Clear 70 21.1 68 20 93 93 ENE 3 6 29.94 1014 7 11 0.00 0.00
6:53 am 06:53 Sunny with Mist and Fog 69 20.6 68 20 96 96 Calm 29.96 1014 6 10 0.00 0.00
7:53 am 07:53 Sunny 73 22.8 69 20.6 87 87 Calm 29.97 1015 10 16 0.00 0.00
8:53 am 08:53 Sunny 77 25 70 21.1 79 79 Calm 29.98 1015 10 16 0.00 0.00
9:53 am 09:53 Sunny 80 26.7 71 21.7 74 74 Calm 29.98 1015 10 16 0.00 0.00
10:53 am 10:53 Sunny 83 28.3 71 21.7 67 67 Calm 29.98 1015 10 16 0.00 0.00
11:53 am 11:53 Sunny 86 30 72 22.2 63 63 ENE 5 7 29.98 1015 10 16 0.00 0.00
12:53 pm 12:53 Sunny 89 31.7 70 21.1 53 53 NE 5 7 29.96 1015 10 16 0.00 0.00
1:01 pm 13:01 Sunny with Nearby Thunderstorms 90 32.2 71 21.7 54 54 VRB 5 7 29.94 1014 10 16 0.00 0.00
1:15 pm 13:15 Sunny 89 31.7 70 21.1 53 53 Calm 29.94 1014 10 16 0.00 0.00
1:53 pm 13:53 Sunny 90 32.2 69 20.6 50 50 WSW 3 6 29.94 1014 10 16 0.00 0.00
2:53 pm 14:53 Partly Cloudy 91 32.8 72 22.2 54 54 Calm 29.91 1013 10 16 0.00 0.00
3:53 pm 15:53 Partly Cloudy 89 31.7 72 22.2 57 57 SW 6 9 29.90 1013 10 16 0.00 0.00
4:53 pm 16:53 Partly Cloudy 91 32.8 70 21.1 50 50 S 5 7 29.88 1012 10 16 0.00 0.00
5:53 pm 17:53 Partly Cloudy 90 32.2 69 20.6 50 50 SW 5 7 29.88 1012 10 16 0.00 0.00
6:29 pm 18:29 Partly Cloudy with Nearby Thunderstorms 86 30 73 22.8 65 65 Calm 29.85 1011 10 16 0.00 0.00
6:44 pm 18:44 Mostly Sunny 85 29.4 75 23.9 72 72 Calm 29.85 1011 10 16 0.00 0.00
6:53 pm 18:53 Mostly Sunny 87 30.6 69 20.6 55 55 VRB 7 11 29.86 1011 10 16 0.00 0.00
7:53 pm 19:53 Mostly Sunny 86 30 71 21.7 61 61 Calm 29.87 1012 10 16 0.00 0.00
8:28 pm 20:28 Sunny with Nearby Thunderstorms 81 27.2 74 23.3 79 79 Calm 29.87 1011 10 16 0.00 0.00
8:46 pm 20:46 Partly Cloudy 80 26.7 74 23.3 82 82 NE 5 7 29.88 1012 10 16 0.00 0.00
8:53 pm 20:53 Mostly Sunny 80 26.7 74 23.3 82 82 Calm 29.88 1012 10 16 0.00 0.00
9:53 pm 21:53 Mostly Clear 78 25.6 71 21.7 79 79 Calm 29.89 1012 10 16 0.00 0.00
10:53 pm 22:53 Clear 76 24.4 71 21.7 85 85 E 3 6 29.91 1013 10 16 0.00 0.00
11:53 pm 23:53 Clear 74 23.3 71 21.7 91 91 Calm 29.91 1013 9 14 0.00 0.00

Powered by AerisWeather